Regional Weather Roundup
Issued by NWS

Current Version | Previous Version | Text Only | Print | Product List | Glossary On
Versions: 1 2 3 4 5 6 7 8 9 10 11 12 13 14 15 16 17 18 19 20 21 22 23 24 25 26 27 28 29 30 31 32 33 34 35 36 37 38 39 40 41 42 43 44 45 46 47 48 49 50
000
ASUS42 KTBW 222310
RWRFL
FLORIDA REGIONAL WEATHER ROUNDUP
NATIONAL WEATHER SERVICE TAMPA BAY RUSKIN FL
700 PM EDT TUE JUL 22 2014

NOTE: "FAIR" INDICATES FEW OR NO CLOUDS BELOW 12,000 FEET WITH NO
SIGNIFICANT WEATHER AND/OR OBSTRUCTIONS TO VISIBILITY.


FLZ001>010-012>015-112-114-115-230000-
PANHANDLE FLORIDA

CITY           SKY/WX    TMP DP  RH WIND       PRES   REMARKS
PENSACOLA      MOSUNNY   82  72  71 CALM      30.01R
PENSACOLA NAS  MOSUNNY   84  74  71 SW6       30.00F
MILTON NAS     PTSUNNY   83  69  62 W8        30.02F
CRESTVIEW      PTSUNNY   86  74  67 CALM      30.02S
DUKE FIELD     PTSUNNY   85  76  72 S6        30.02F
VALPARAISO     MOSUNNY   84  74  71 S8        30.01F
MARY ESTHER    SUNNY     83  71  66 S6        30.01F
TRI COUNTY     HVY RAIN  81  75  82 S12       30.03R
PANAMA CITY    FAIR      85  71  63 S12       30.00F
TYNDALL AFB    SUNNY     83  74  74 S6        30.02F
APALACHICOLA   SUNNY     86  72  62 S8        30.02S

STATION/POSITION SKY/WX   TEMP    WIND        PRES    WAVE   SWELL
                          AIR SEA DIR/SP/G            HT/PER HT/PER
                          (F)     (DEG/KT/KT) (MB)    (FT/S) (FT/S)
30.1N   87.6W              83 84  220/  6/  8 1015.8F   1/ 4
29.2N   88.2W              83 86  230/  6/  8 1016.4S
28.8N   86.0W              82 84  250/  6/  6 1016.5R   1/ 3
PANAMA CITY BEAC           83 83  190/  5/  5 1016.3R
CAPE SAN BLAS    NOT AVBL
TOWER C                    83      CALM  /  2 1016.5F
28.5N   84.5W              86 88   CALM  /  2 1016.4F   1/ 5

$$
FLZ011-016>038-118-127-128-134-139-239-230000-
NORTH FLORIDA

CITY           SKY/WX    TMP DP  RH WIND       PRES   REMARKS
MARIANNA       MOSUNNY   85  75  72 S9        30.00F
TALLAHASSEE    MOSUNNY   87  72  60 CALM      30.01F
PERRY          SUNNY     86  70  58 SW5       30.02F
CROSS CITY       N/A     87  73  62 SW5       30.01F
GAINESVILLE    TSTM      76  73  91 W26G43    30.05R FOG
MAYPORT NAS    PTSUNNY   84  74  71 E9        30.04F
JACKSONVILLE   PTSUNNY   84  75  74 E10       30.03F
JAX NAS        PTSUNNY   87  73  62 E13       30.03F
JAX CRAIG      MOSUNNY   83  74  74 E9        30.04F
JAX CECIL      MOSUNNY   84  75  74 E12       30.03F
FERNANDINA BEA FAIR      82  73  74 E10       30.03F
ST AUGUSTINE   MOSUNNY   83  74  74 E12       30.05S

STATION/POSITION SKY/WX   TEMP    WIND        PRES    WAVE   SWELL
                          AIR SEA DIR/SP/G            HT/PER HT/PER
                          (F)     (DEG/KT/KT) (MB)    (FT/S) (FT/S)
SHELL POINT                85     170/  8/ 10   N/A
KEATON BEACH               83     230/  6/  7 1016.6F
CEDAR KEY                  85     250/  3/  5 1017.5R
FERNANDINA                 83 84  130/  4/ 10 1016.8F
30.7N   81.3W                 85                N/A     2/ 7
MAYPORT                    83 84  100/  8/ 11   N/A
31.4N   80.9W              81 85  130/ 10/ 12 1017.5R   2/ 8   2/ 8
ST AUGUSTINE               81     110/  9/ 10 1017.9F

$$
FLZ040-043>046-052-053-057-058-063-144-230000-
INTERIOR CENTRAL FLORIDA

CITY           SKY/WX    TMP DP  RH WIND       PRES   REMARKS
OCALA          MOSUNNY   84  70  61 W6        30.03F
LEESBURG       PTSUNNY   85  72  65 E17       30.06R THUNDER
SANFORD        CLOUDY    79  74  84 SE6       30.04S
ORLANDO EXEC   LGT RAIN  79  76  90 S9        30.05S
ORLANDO INTL   LGT RAIN  76  74  93 S8        30.07R
KISSIMMEE      DRIZZLE   79  75  89 S7        30.08R
WINTER HAVEN   CLOUDY    77  71  82 E14G21    30.07R
LAKELAND       PTSUNNY   84  72  65 NW7       30.04R
BARTOW         LGT RAIN  75  75 100 E10       30.06R
OKEECHOBEE       N/A     77  73  88 MISG      30.05F

$$
FLZ041-047-054-059-064-141-147-230000-
EAST CENTRAL FLORIDA

CITY           SKY/WX    TMP DP  RH WIND       PRES   REMARKS
ORMOND BEACH   MOSUNNY   82  75  78 SE7       30.04F
DAYTONA BEACH  CLOUDY    82  76  81 VRB5      30.04F
DELAND         CLOUDY    81  75  83 CALM      30.06R
NEW SMYRNA BEA MOSUNNY   82  75  78 E7        30.04F
JFK SPACE CTR  LGT RAIN  77  77 100 S5        30.04F
TITUSVILLE     PTSUNNY   75  73  94 VRB7      30.05S
CAPE CANAVERAL CLOUDY    79  77  94 S2        30.04F
PATRICK AFB    CLOUDY    78  75  90 E5        30.04S
MELBOURNE      CLOUDY    76  72  87 CALM      30.05F
VERO BEACH     PTSUNNY   78  77  96 NW7       30.04F
FT PIERCE      LGT RAIN  80  74  81 W3        30.04F
STUART         TSTM      81  73  78 VRB5      30.05F

STATION/POSITION SKY/WX   TEMP    WIND        PRES    WAVE   SWELL
                          AIR SEA DIR/SP/G            HT/PER HT/PER
                          (F)     (DEG/KT/KT) (MB)    (FT/S) (FT/S)
28.5N   80.2W              83 84  150/  8/ 10 1017.7F
28.9N   78.5W              81 83  150/ 12/ 16 1018.3R   4/ 6   3/ 6
TRIDENT PIER               79 87  170/  1/  3 1016.8S
28.4N   80.5W                 85                N/A     2/ 8
27.6N   80.2W                 84                N/A     2/ 7

$$
FLZ050-056-061-142-242-148-248-149-249-151-251-155-255-
160-260-230000-
WEST CENTRAL FLORIDA

CITY           SKY/WX    TMP DP  RH WIND       PRES   REMARKS
CRYSTAL RIVER  FAIR      86  72  62 W6        30.02F
INVERNESS      FAIR      82  73  74 CALM      30.02F
BROOKSVILLE    MOSUNNY   88  70  55 NW6       30.03S
ZEPHYRHILLS    FAIR      79  72  78 W3        30.03F
CLEARWATER     PTSUNNY   87  73  62 N7        30.02F
TAMPA INTL     CLOUDY    85  70  60 VRB5      30.03R
TAMPA EXEC     PTSUNNY   79  72  78 CALM      30.03F
PLANT CITY     CLOUDY    84  70  61 N6        30.04F
MACDILL AFB    CLOUDY    87  76  71 NW3       30.02F HX  97
ST PETERSBURG  CLOUDY    88  72  58 NW5       30.00F
SARASOTA       CLOUDY    86  73  65 W5        30.02R
VENICE         FAIR      84  73  70 CALM      30.04F

STATION/POSITION SKY/WX   TEMP    WIND        PRES    WAVE   SWELL
                          AIR SEA DIR/SP/G            HT/PER HT/PER
                          (F)     (DEG/KT/KT) (MB)    (FT/S) (FT/S)
CEDAR KEY                  85     250/  3/  5 1017.5R
28.5N   84.5W              86 88   CALM  /  2 1016.4F   1/ 5
27.3N   84.3W                 89                N/A     2/ 4
CLEARWATER BEACH           85 90  320/  5/  7 1016.6R
MIDDLE TAMPA BAY           86     340/  8/  9 1016.7F
VENICE                     85 90  260/  3/  3 1016.6R

$$
FLZ066-069-070-075>078-162-262-165-265-230000-
SOUTHWEST FLORIDA AND KEYS

CITY           SKY/WX    TMP DP  RH WIND       PRES   REMARKS
PUNTA GORDA    CLOUDY    81  78  91 E6        30.05S
FT MYERS       CLOUDY    79  76  90 E5        30.03R
SOUTHWEST INTL CLOUDY    78  74  87 CALM      30.03S
NAPLES         PTSUNNY   81  75  82 E6        30.03S
MARATHON       CLOUDY    85  74  69 N3        30.04S
KEY WEST NAS   PTSUNNY   87  73  62 N6        30.03S
KEY WEST INTL  MOSUNNY   88  73  61 NE7       30.04S HX  95

STATION/POSITION SKY/WX   TEMP    WIND        PRES    WAVE   SWELL
                          AIR SEA DIR/SP/G            HT/PER HT/PER
                          (F)     (DEG/KT/KT) (MB)    (FT/S) (FT/S)
VENICE                     85 90  260/  3/  3 1016.6R
NAPLES                     80 92   90/  4/  6 1017.3F
DRY TORTUGAS               85      50/  6/  7 1017.1F
NW FL BAY                  84     320/  4/  5 1017.1F
SAND KEY                   84      30/  5/  7 1017.1F
SOMBRERO KEY               84      20/  5/  6 1017.9F
LONG KEY                   83 89  340/  3/  4 1018.0R
MOLASSES REEF              84 86   90/  3/  3 1017.3R

$$
FLZ067-068-071>074-168-172>174-230000-
SOUTHEAST FLORIDA

CITY           SKY/WX    TMP DP  RH WIND       PRES   REMARKS
W PALM BEACH   CLOUDY    83  76  79 N5        30.03F
FT LAUDER-EXEC PTSUNNY   80  77  90 E3        30.04R
FT LAUDERDALE  PTSUNNY   82  78  88 VRB3      30.03S
POMPANO BEACH    N/A    N/A N/A N/A MISG      30.04R
PEMBROKE PINES PTSUNNY   83  76  79 E8        30.05S
OPA LOCKA      PTSUNNY   88  74  63 NE12      30.03S HX  96
MIAMI          PTSUNNY   89  72  56 NW6       30.03S HX  96
WEST KENDALL   MOSUNNY   90  71  53 W3        30.03S HX  96
HOMESTEAD      MOSUNNY   87  72  59 CALM      30.04F

STATION/POSITION SKY/WX   TEMP    WIND        PRES    WAVE   SWELL
                          AIR SEA DIR/SP/G            HT/PER HT/PER
                          (F)     (DEG/KT/KT) (MB)    (FT/S) (FT/S)
PORT EVERGLADES            81     200/  2/  4 1017.2
VIRGINIA KEY               85 87  170/  6/ 10   N/A
LAKE WORTH                 82 85              1016.8R
FOWEY ROCKS                84 85  130/  6/  7 1017.4R
SETTLEMENT POINT           82     120/  4/  5 1018.2S

$$




USA.gov is the U.S. government's official web portal to all federal, state and local government web resources and services.